STARLINK-32503 (62157 NORAD) Tracking and Keplerian Element Data

This shows tracking and keplerian element data for the satellite.

Feedback or suggestion? Click here.




ElementValue
Catalog62157
NameSTARLINK-32503
Epoch Orbit1098
Epoch Day34.98304933
Epoch Year2025
RAAN257.5178
Inclination43.0003
Eccentricity0.0001208
Argument of Perigee286.603
Mean Anonmoly73.4691
Mean Motion15.32083594
Decay Rate-1.574E-05
L11 62157U 24224U 25034.98304933 -.00001574 00000+0 -41083-4 0 9996
L22 62157 43.0003 257.5178 0001208 286.6030 73.4691 15.32083594 10982



Live tracking and technical data element details for STARLINK-32503 (NORAD 62157). STARLINK-32503 can be tracked NOW for your location showing map with azimuth and elevation plus other details from your city location.







IsCatalogInMostPopularTable: catalog: 62157, numindb: 20
Update: records affected: 1



GetName: 62157 STARLINK-32503

Hit Count: updated at: Sat, 24 May 2025 17:25:37 GMT